Miscellaneous Local Product
Issued by NWS North Platte, NE

Home | Current Version | Previous Version | Text Only | Print | Product List | Glossary On
Versions: 1 2 3 4 5 6 7 8 9 10 11 12 13 14 15 16 17 18 19 20 21 22 23 24 25 26 27 28 29 30 31 32 33 34 35 36 37 38 39 40 41 42 43 44 45 46 47 48 49 50
000
AXUS43 KLBF 021810
MISLBF


WESTERN AND NORTH CENTRAL NEBRASKA HOURLY WEATHER ROUNDUP
NATIONAL WEATHER SERVICE NORTH PLATTE NE
1200 PM CST FRI DEC 02 2016

NOTE: "FAIR" INDICATES FEW OR NO CLOUDS BELOW 12,000 FEET WITH NO
SIGNIFICANT WEATHER AND/OR OBSTRUCTIONS TO VISIBILITY.

NOTE: STATIONS NOT REPORTING VARIABLES SUCH AS SKY/WEATHER OR
PRESSURE ARE PROVIDED BY RAWS AND APRS NETWORKS AND ARE NOT UNDER
NATIONAL WEATHER SERVICE QUALITY CONTROL.

...OBSERVATIONS IN AND NEAR THE EASTERN PANHANDLE OF NEBRASKA...

CITY           SKY/WX    TMP DP  RH WIND       PRES   REMARKS
PINE RIDGE     SUNNY     31  25  78 CALM      30.21R
CHADRON        SUNNY     41  24  51 W8        30.22R
ALLIANCE       SUNNY     40  25  55 N9        30.20S WCI  34
SIDNEY         CLOUDY    36  25  64 NE3       30.23S
CRESCENT LAKE    N/A     39  24  55 N7          N/A  WCI  34
$$

...OBSERVATIONS IN NORTHERN NEBRASKA AND FAR SOUTHERN SOUTH DAKOTA...

CITY           SKY/WX    TMP DP  RH WIND       PRES   REMARKS
WINNER         PTSUNNY   32  25  75 NW3       30.25F
VALENTINE      SUNNY     36  22  56 W5        30.23S WCI  32
THEDFORD       SUNNY     40  23  50 NW3       30.23F
AINSWORTH      MOSUNNY   33  26  75 CALM      30.24S
O`NEILL        CLOUDY    33  27  77 CALM      30.26F
ORD            SUNNY     36  24  62 N6        30.26S WCI  31
BROKEN BOW     SUNNY     38  25  59 S5        30.25R WCI  34
VALENTINE NWR    N/A     37  21  53 W5          N/A  WCI  33
BUTTE            N/A     32  27  81 NW3         N/A
HALSEY           N/A     39  22  51 NW3         N/A
CHAMBERS         N/A     36  27  69 CALM        N/A
EWING            N/A     33  29  86 CALM        N/A
$$

...OBSERVATIONS IN SOUTHWEST NEBRASKA AND FAR NORTHEAST COLORADO...

CITY           SKY/WX    TMP DP  RH WIND       PRES   REMARKS
WRAY           FAIR      41  21  45 E6        30.24
HOLYOKE        FAIR      41  27  56 N6        30.24F
IMPERIAL       CLOUDY    40  25  55 N6        30.24F
OGALLALA       SUNNY     38  26  61 W9        30.24F WCI  31
NORTH PLATTE   SUNNY     37  24  59 S3        30.25S
MCCOOK         MOSUNNY   35  22  58 CALM      30.26F
LEXINGTON      SUNNY     36  26  65 SE5       30.27F WCI  32
STAPLETON        N/A     38  23  55 CALM        N/A
GOTHENBURG       N/A     38  24  56 CALM        N/A
CALLAWAY         N/A     39  27  62 SW5         N/A
$$

...OBSERVATIONS IN CENTRAL LINCOLN COUNTY AREA...

CITY           SKY/WX    TMP DP  RH WIND       PRES   REMARKS
N.P. AIRPORT   SUNNY     37  24  59 S3        30.25S
N.P. DOWNTOWN    N/A     37  25  63 CALM        N/A
N.P. SOUTHEAST   N/A     36  23  59 CALM        N/A
N.P. HILLCREST   N/A     37  28  69 SW3         N/A
$$

...SOME OBSERVATIONS FROM AROUND THE REGION...

CITY           SKY/WX    TMP DP  RH WIND       PRES   REMARKS
LARAMIE        FLURRIES  19  15  84 NE6       30.11F WCI  11
CHEYENNE       CLOUDY    31  17  56 NE7       30.16S WCI  24
DENVER         CLOUDY    32  19  58 E8        30.19F WCI  25
AKRON          CLOUDY    35  17  47 NE6       30.20F WCI  30
SCOTTSBLUFF    SUNNY     37  24  59 W9        30.22F WCI  30
RAPID CITY     CLOUDY    36  24  62 N12       30.19S WCI  28
BISMARCK       CLOUDY    25  18  74 E8        30.26F WCI  16
PIERRE         CLOUDY    30  26  85 E3        30.25F
SIOUX FALLS    CLOUDY    33  28  81 NW5       30.26S WCI  29
OMAHA          PTSUNNY   39  29  67 N8        30.28S WCI  33
GRAND ISLAND   SUNNY     37  27  67 VRB3      30.29R
KANSAS CITY    MOSUNNY   45  27  49 NE5       30.28S
WICHITA        CLOUDY    48  26  42 NE8       30.24F
OKLAHOMA CITY  CLOUDY    50  30  46 N7        30.17F
DALLAS         CLOUDY    60  38  43 SE9       30.14F
AMARILLO       CLOUDY    48  24  39 E14       30.14F
DODGE CITY     MOSUNNY   48  12  23 CALM      30.25R
HAYS           MOSUNNY   42  21  43 N7        30.26R
GOODLAND       MOSUNNY   37  15  40 N6        30.22F WCI  32
$$




USA.gov is the U.S. government's official web portal to all federal, state and local government web resources and services.